Regional Weather Roundup
Issued by NWS

Home | Current Version | Previous Version | Text Only | Print | Product List | Glossary Off
Versions: 1 2 3 4 5 6 7 8 9 10 11 12 13 14 15 16 17 18 19 20 21 22 23 24 25 26 27 28 29 30 31 32 33 34 35 36 37 38 39 40 41 42 43 44 45 46 47 48 49 50

000
ASUS43 KFSD 192310
RWRSD

WEATHER ROUNDUP FOR SOUTH DAKOTA
NATIONAL WEATHER SERVICE SIOUX FALLS SD
500 PM CST SUN FEB 19 2017

NOTE: "FAIR" INDICATES FEW OR NO CLOUDS BELOW 12,000 FEET WITH NO
SIGNIFICANT WEATHER AND/OR OBSTRUCTIONS TO VISIBILITY.


SDZ001>005-009-010-012>017-200000-
NORTHWEST AND NORTH CENTRAL SOUTH DAKOTA

CITY           SKY/WX    TMP DP  RH WIND       PRES   REMARKS
BUFFALO          N/A     64  34  32 SW13      29.38R
FAITH            N/A     61  37  41 S13       29.45F
MOBRIDGE       CLOUDY    46  37  71 SE13      29.46F
$$

SDZ012>016-024>037-041>051-057-063-072>074-200000-
SOUTHWEST AND SOUTH CENTRAL SOUTH DAKOTA

CITY           SKY/WX    TMP DP  RH WIND       PRES   REMARKS
RAPID CTY ARPT CLOUDY    66  32  28 SW10      29.47S
PIERRE         CLOUDY    64  39  39 SE9       29.50R
CUSTER         CLOUDY    54  28  36 SW13G18   29.57S
ELLSWORTH AFB  CLOUDY    65  32  28 S15       29.46F
PHILIP         CLOUDY    68  33  27 S10       29.49R
PINE RIDGE     CLOUDY    58  35  42 S8        29.55S
SPEARFISH      FAIR      63  30  29 SW20G28   29.48S
WINNER         FAIR      70  40  33 S15       29.57R
$$

SDZ004>011-016>023-039-040-200000-
NORTHEAST SOUTH DAKOTA

CITY           SKY/WX    TMP DP  RH WIND       PRES   REMARKS
ABERDEEN       CLOUDY    56  47  71 S12       29.56S
WATERTOWN      CLOUDY    54  47  77 S16G25    29.62F
BROOKINGS      CLOUDY    59  49  69 S20G25    29.66R
SISSETON         N/A     57  52  83 S15       29.61R
$$

SDZ017-020-022-023-036>040-048>070-200000-
SOUTHEAST SOUTH DAKOTA

CITY           SKY/WX    TMP DP  RH WIND       PRES   REMARKS
SIOUX FALLS    CLOUDY    61  51  70 S16       29.69F
HURON          CLOUDY    61  50  67 S15G28    29.58S
CHAMBERLAIN    MOSUNNY   67  47  48 S17       29.56S
MITCHELL       CLOUDY    64  51  62 S25G33    29.60S
YANKTON        CLOUDY    63  50  63 SE15G22   29.67S
$$

ABBREVIATIONS USED IN REMARKS
   TC - TEMPERATURE IN CELSIUS
  WCI - WIND CHILL INDEX
   HX - HEAT INDEX
  VSB - VISIBILITY




USA.gov is the U.S. government's official web portal to all federal, state and local government web resources and services.